Regional Weather Roundup
Issued by NWS

Home | Current Version | Previous Version | Graphics & Text | Print | Product List | Glossary On
Versions: 1 2 3 4 5 6 7 8 9 10 11 12 13 14 15 16 17 18 19 20 21 22 23 24 25 26 27 28 29 30 31 32 33 34 35 36 37 38 39 40 41 42 43 44 45 46 47 48 49 50
000
ASUS45 KSLC 040110
RWRUT

UTAH REGIONAL WEATHER ROUNDUP
NATIONAL WEATHER SERVICE SALT LAKE CITY UT
700 PM MDT FRI JUL 03 2015

UTZ001>011-023>025-040200-

NORTHERN UTAH

CITY           SKY/WX    TMP DP  RH WIND       PRES   REMARKS
BRIGHAM CITY   MOSUNNY   96  33  11 S5        29.90F HX  90
HILL AFB       SUNNY     94  41  15 N3        29.96F HX  90
LOGAN          SUNNY     94  41  16 SW3       29.91F HX  90
OGDEN          MOSUNNY   96  38  13 W7        29.92F HX  91
PROVO AIRPORT  MOSUNNY   91  54  27 NW10      29.92F
SALT LAKE CITY   N/A     98  42  14 N7        29.89F HX  94
VERNAL         MOSUNNY   91  42  18 SW5       29.95F
WENDOVER       PTSUNNY   97  43  15 SE9       29.90F HX  92
HEBER CITY     MOSUNNY   91  36  14 NW5       30.02F
WEST JORDAN    SUNNY     95  43  16 NW7       29.94F HX  91

$$

UTZ012>022-026-027-040200-

SOUTHERN/CENTRAL UTAH

CITY           SKY/WX    TMP DP  RH WIND       PRES   REMARKS
BLANDING       PTSUNNY   82  47  30 E6        30.12F
BRYCE CANYON   PTSUNNY   78  46  32 W13       30.21F
CEDAR CITY     PTSUNNY   84  45  25 W10       30.06R
DELTA          PTSUNNY   94  37  13 W16       29.93F HX  90
HANKSVILLE     SUNNY     99  39  12 SE7       29.88F HX  94
MILFORD        PTSUNNY   93  37  14 N7        29.97F
MOAB/CYNLANDS  SUNNY     98  35  11 MISG      29.85F HX  93
PRICE          SUNNY     95  29   9 NW14G24   30.00F
ST GEORGE      PTCLDY    91  55  29 E17       29.84F
KANAB          CLOUDY    86  52  30 SW13      30.07F

$$

REGIONAL REPORTS     COLORADO/ARIZONA

CITY           SKY/WX    TMP DP  RH WIND       PRES   REMARKS
CRAIG, CO      SUNNY     90  33  13 N3        30.03F
GRAND JUNCTION MOSUNNY   94  45  18 E15       29.91S HX  90
RIFLE          MOSUNNY   89  45  21 NW7       29.98F
MONTROSE       PTSUNNY   82  49  31 E15G21    30.07S
CORTEZ         SUNNY     79  53  40 NE17G23   30.09R
PAGE, AZ       MOSUNNY   95  47  19 SW9       29.91S HX  91
GRAND CANYON   CLOUDY    73  52  47 N12G17    30.17
KINGMAN        MOSUNNY   95  45  17 SW20G25   29.89F HX  91
FLAGSTAFF      PTSUNNY   78  47  33 N5        30.16F

$$

REGIONAL REPORTS    NEVADA/IDAHO/WYOMING

CITY           SKY/WX    TMP DP  RH WIND       PRES   REMARKS
LAS VEGAS, NV  MOSUNNY  108  41  10 SW7       29.69F HX 102
ELY            MOSUNNY   85  48  27 S17       30.09F
ELKO           PTSUNNY   93  41  16 W10       29.98F
POCATELLO, ID  SUNNY     94  47  20 SW15      29.89F HX  90
BURLEY         CLOUDY    86  52  30 W13       29.88F
EVANSTON, WY   MOSUNNY   85  37  18 NW14      30.15F
ROCK SPRINGS   SUNNY     85  36  17 NW10      30.08F
KEMMERER       SUNNY    N/A N/A N/A NW13      30.17S

$$


USA.gov is the U.S. government's official web portal to all federal, state and local government web resources and services.